Hourly Weather Bolshie Polyany

Today, 20 June, Sunday

Time Temperature Precipitation Wind Pressure Humidity
00:00 +18°C° 0 mm 1 mps 749 mmHg 92%
01:00 +18°C° 0 mm 1 mps 749 mmHg 94%
02:00 +18°C° 0 mm 1 mps 749 mmHg 95%
03:00 +18°C° 0 mm 1 mps 749 mmHg 94%
04:00 +19°C° 0 mm 1 mps 749 mmHg 92%
05:00 +19°C° 0 mm 1 mps 749 mmHg 91%
06:00 +21°C° 0 mm 1 mps 749 mmHg 83%
07:00 +23°C° 0 mm 1 mps 749 mmHg 75%
08:00 +25°C° 0 mm 1 mps 749 mmHg 68%
09:00 +26°C° 0 mm 2 mps 749 mmHg 62%
10:00 +28°C° 0 mm 2 mps 749 mmHg 56%
11:00 +29°C° 0 mm 2 mps 749 mmHg 51%
12:00 +29°C° 0 mm 2 mps 749 mmHg 48%
13:00 +30°C° 0 mm 2 mps 748 mmHg 46%
14:00 +30°C° 0 mm 2 mps 748 mmHg 43%
15:00 +30°C° 0 mm 2 mps 748 mmHg 47%
16:00 +29°C° 0 mm 2 mps 748 mmHg 50%
17:00 +29°C° 0 mm 2 mps 748 mmHg 54%
18:00 +27°C° 0 mm 2 mps 747 mmHg 62%
19:00 +24°C° 0 mm 2 mps 747 mmHg 71%
20:00 +21°C° 0 mm 2 mps 747 mmHg 79%
21:00 +20°C° 0 mm 2 mps 747 mmHg 82%
22:00 +19°C° 0 mm 2 mps 747 mmHg 84%
23:00 +18°C° 0 mm 2 mps 748 mmHg 87%

Tomorrow, 21 June, Monday

Time Temperature Precipitation Wind Pressure Humidity
00:00 +18°C° 0 mm 2 mps 748 mmHg 88%
01:00 +19°C° 0 mm 1 mps 748 mmHg 90%
02:00 +18°C° 0 mm 1 mps 748 mmHg 92%
03:00 +19°C° 0 mm 1 mps 748 mmHg 90%
04:00 +19°C° 0 mm 1 mps 748 mmHg 89%
05:00 +20°C° 0 mm 1 mps 748 mmHg 87%
06:00 +21°C° 0 mm 1 mps 748 mmHg 81%
07:00 +23°C° 0 mm 2 mps 748 mmHg 74%
08:00 +24°C° 0 mm 2 mps 748 mmHg 68%
09:00 +25°C° 0 mm 2 mps 748 mmHg 61%
10:00 +27°C° 0 mm 2 mps 748 mmHg 55%
11:00 +28°C° 0 mm 2 mps 748 mmHg 49%
12:00 +29°C° 0 mm 2 mps 747 mmHg 47%
13:00 +29°C° 0 mm 3 mps 747 mmHg 44%
14:00 +30°C° 0 mm 3 mps 747 mmHg 42%
15:00 +30°C° 0 mm 2 mps 747 mmHg 47%
16:00 +29°C° 0 mm 2 mps 747 mmHg 52%
17:00 +29°C° 0 mm 2 mps 747 mmHg 56%
18:00 +27°C° 0 mm 2 mps 747 mmHg 66%
19:00 +25°C° 0 mm 2 mps 747 mmHg 75%
20:00 +23°C° 0 mm 2 mps 747 mmHg 84%
21:00 +21°C° 0 mm 2 mps 747 mmHg 88%
22:00 +20°C° 0 mm 2 mps 747 mmHg 92%
23:00 +20°C° 0 mm 2 mps 747 mmHg 96%

Day after tomorrow, 22 June, Tuesday

Time Temperature Precipitation Wind Pressure Humidity
00:00 +19°C° 0 mm 2 mps 747 mmHg 96%
01:00 +19°C° 0 mm 2 mps 747 mmHg 96%
02:00 +19°C° 0 mm 2 mps 747 mmHg 96%
03:00 +19°C° 0 mm 2 mps 747 mmHg 95%
04:00 +20°C° 0 mm 2 mps 747 mmHg 94%
05:00 +20°C° 0 mm 2 mps 747 mmHg 93%
06:00 +23°C° 0 mm 2 mps 747 mmHg 83%
07:00 +25°C° 0 mm 2 mps 747 mmHg 74%
08:00 +27°C° 0 mm 3 mps 747 mmHg 64%
09:00 +28°C° 0 mm 3 mps 747 mmHg 58%
10:00 +30°C° 0 mm 3 mps 747 mmHg 52%
11:00 +32°C° 0 mm 4 mps 747 mmHg 45%
12:00 +33°C° 0 mm 4 mps 747 mmHg 44%
13:00 +33°C° 0 mm 4 mps 747 mmHg 42%
14:00 +34°C° 0 mm 4 mps 747 mmHg 41%
15:00 +33°C° 0 mm 4 mps 747 mmHg 46%
16:00 +31°C° 0 mm 3 mps 747 mmHg 50%
17:00 +31°C° 0 mm 3 mps 747 mmHg 55%
18:00 +29°C° 0 mm 3 mps 747 mmHg 65%
19:00 +27°C° 0 mm 3 mps 747 mmHg 75%
20:00 +25°C° 0 mm 2 mps 747 mmHg 84%
21:00 +24°C° 0 mm 2 mps 747 mmHg 88%
22:00 +23°C° 0 mm 2 mps 747 mmHg 92%
23:00 +21°C° 0 mm 2 mps 747 mmHg 96%

23 June, Wednesday

Time Temperature Precipitation Wind Pressure Humidity
00:00 +21°C° 0 mm 2 mps 747 mmHg 96%
01:00 +21°C° 0 mm 2 mps 747 mmHg 96%
02:00 +20°C° 0 mm 2 mps 748 mmHg 96%
03:00 +22°C° 0 mm 1 mps 747 mmHg 95%
04:00 +22°C° 0 mm 1 mps 747 mmHg 94%
05:00 +22°C° 0 mm 1 mps 747 mmHg 92%
06:00 +24°C° 0 mm 2 mps 748 mmHg 84%
07:00 +26°C° 0 mm 2 mps 748 mmHg 75%
08:00 +28°C° 0 mm 2 mps 748 mmHg 66%
09:00 +29°C° 0 mm 2 mps 748 mmHg 60%
10:00 +31°C° 0 mm 3 mps 748 mmHg 53%
11:00 +33°C° 0 mm 3 mps 748 mmHg 47%
12:00 +34°C° 0 mm 3 mps 748 mmHg 45%
13:00 +34°C° 0 mm 3 mps 747 mmHg 42%
14:00 +35°C° 0 mm 3 mps 747 mmHg 40%
15:00 +34°C° 0 mm 3 mps 747 mmHg 43%
16:00 +33°C° 0 mm 3 mps 747 mmHg 47%
17:00 +32°C° 0 mm 2 mps 747 mmHg 51%
18:00 +29°C° 0 mm 2 mps 747 mmHg 59%
19:00 +27°C° 0 mm 2 mps 747 mmHg 68%
20:00 +25°C° 0 mm 2 mps 747 mmHg 76%
21:00 +24°C° 0 mm 2 mps 747 mmHg 79%
22:00 +23°C° 0 mm 2 mps 747 mmHg 83%
23:00 +22°C° 0 mm 1 mps 747 mmHg 86%

24 June, Thursday

Time Temperature Precipitation Wind Pressure Humidity
00:00 +22°C° 0 mm 1 mps 747 mmHg 87%
01:00 +21°C° 0 mm 1 mps 747 mmHg 88%
02:00 +21°C° 0 mm 1 mps 747 mmHg 89%
03:00 +22°C° 0 mm 1 mps 747 mmHg 88%
04:00 +22°C° 0 mm 1 mps 748 mmHg 87%
05:00 +23°C° 0 mm 1 mps 748 mmHg 85%
06:00 +25°C° 0 mm 1 mps 748 mmHg 78%
07:00 +27°C° 0 mm 1 mps 748 mmHg 71%
08:00 +29°C° 0 mm 1 mps 748 mmHg 65%
09:00 +30°C° 0 mm 1 mps 748 mmHg 58%
10:00 +32°C° 0 mm 1 mps 748 mmHg 51%
11:00 +33°C° 0 mm 1 mps 748 mmHg 44%
12:00 +34°C° 0 mm 1 mps 747 mmHg 42%
13:00 +35°C° 0 mm 2 mps 747 mmHg 40%
14:00 +36°C° 0 mm 2 mps 747 mmHg 38%
15:00 +35°C° 0 mm 2 mps 747 mmHg 42%
16:00 +35°C° 0 mm 2 mps 747 mmHg 46%
17:00 +34°C° 0 mm 2 mps 747 mmHg 50%
18:00 +31°C° 0 mm 2 mps 746 mmHg 59%
19:00 +29°C° 0 mm 2 mps 746 mmHg 68%
20:00 +26°C° 0 mm 2 mps 746 mmHg 77%
21:00 +26°C° 0 mm 1 mps 746 mmHg 80%
22:00 +25°C° 0 mm 1 mps 747 mmHg 82%
23:00 +24°C° 0 mm 1 mps 747 mmHg 85%

25 June, Friday

Time Temperature Precipitation Wind Pressure Humidity
00:00 +24°C° 0 mm 1 mps 747 mmHg 86%
01:00 +23°C° 0 mm 1 mps 747 mmHg 87%
02:00 +23°C° 0 mm 1 mps 747 mmHg 88%
03:00 +23°C° 0 mm 1 mps 746 mmHg 86%
04:00 +24°C° 0 mm 1 mps 746 mmHg 85%
05:00 +24°C° 0 mm 1 mps 746 mmHg 83%
06:00 +26°C° 0 mm 1 mps 746 mmHg 76%
07:00 +28°C° 0 mm 1 mps 747 mmHg 68%
08:00 +30°C° 0 mm 2 mps 747 mmHg 61%
09:00 +31°C° 0 mm 2 mps 747 mmHg 55%
10:00 +32°C° 0 mm 1 mps 747 mmHg 49%
11:00 +34°C° 0 mm 1 mps 746 mmHg 43%
12:00 +35°C° 0 mm 2 mps 746 mmHg 41%
13:00 +36°C° 0 mm 2 mps 746 mmHg 38%
14:00 +36°C° 0 mm 2 mps 746 mmHg 35%
15:00 +33°C° 0.6 mm 3 mps 746 mmHg 48%
16:00 +30°C° 0.6 mm 4 mps 745 mmHg 61%
17:00 +27°C° 0.6 mm 5 mps 745 mmHg 74%
18:00 +25°C° 3.7 mm 4 mps 746 mmHg 82%
19:00 +22°C° 3.7 mm 4 mps 746 mmHg 89%
20:00 +19°C° 3.7 mm 3 mps 747 mmHg 97%
21:00 +19°C° 0.1 mm 3 mps 746 mmHg 96%
22:00 +19°C° 0.1 mm 2 mps 745 mmHg 95%
23:00 +19°C° 0.1 mm 2 mps 745 mmHg 93%
Show more